Regional Weather Roundup
Issued by NWS

Home | Current Version | Previous Version | Text Only | Print | Product List | Glossary On
Versions: 1 2 3 4 5 6 7 8 9 10 11 12 13 14 15 16 17 18 19 20 21 22 23 24 25 26 27 28 29 30 31 32 33 34 35 36 37 38 39 40 41 42 43 44 45 46 47 48 49 50
000
ASUS43 KLSX 241359
RWRMO

WEATHER SUMMARY FOR MISSOURI
NATIONAL WEATHER SERVICE SPRINGFIELD MO
900 AM CDT THU APR 24 2014

NOTE: "FAIR" INDICATES FEW OR NO CLOUDS BELOW 12,000 FEET WITH NO
       SIGNIFICANT WEATHER AND/OR OBSTRUCTIONS TO VISIBILITY.
       CURRENT SKY AND/OR WEATHER CONDITIONS ARE NOT AVAILABLE FOR
       CHILLICOTHE AND FARMINGTON.

MOZ001>031-035>038-043-044-053-054-241500-
...NORTHERN AND WESTERN MISSOURI...

CITY           SKY/WX    TMP DP  RH WIND       PRES   REMARKS
KANSAS CTY INT RAIN      57  55  93 NE5       29.68R FOG
KANSAS C DTWN  LGT RAIN  59  54  83 VRB3      29.66R
LEE`S SUMMIT   TSTM      56  53  90 S5        29.69S FOG
ST JOSEPH      RAIN      58  55  90 E9        29.67R FOG
CHILLICOTHE      N/A     58  44  60 SE6       29.71R
KIRKSVILLE     CLOUDY    58  39  49 SE17      29.73F

$$
MOZ066>068-077>081-088>096-101>105-241500-
...SOUTHWEST MISSOURI...

CITY           SKY/WX    TMP DP  RH WIND       PRES   REMARKS
SPRINGFIELD    PTSUNNY   63  43  48 S18       29.72R
JOPLIN         CLOUDY    65  54  67 S18       29.68F

$$
MOZ032>034-039>042-045>050-055>058-069>072-241500-
...CENTRAL MISSOURI...

CITY           SKY/WX    TMP DP  RH WIND       PRES   REMARKS
COLUMBIA       CLOUDY    60  38  43 SE12      29.74S
JEFFERSON CITY CLOUDY    62  38  40 SE12      29.73F
ROLLA          PTSUNNY   62  38  40 S13       29.76F
SEDALIA        CLOUDY    63  46  54 S5        29.73R
WHITEMAN AFB   LGT RAIN  57  45  62 SE3       29.71S
OSAGE BEACH    PTSUNNY   64  37  36 S12G22    29.72F

$$
MOZ051-052-059>065-241500-
...EAST CENTRAL MISSOURI...

CITY           SKY/WX    TMP DP  RH WIND       PRES   REMARKS
ST LOUIS INTL  PTSUNNY   61  35  37 SE20G25   29.84F
SPIRIT OF STL  PTSUNNY   60  35  39 SE10G24   29.80F
ST CHARLES     MOSUNNY   60  36  40 SE16G24   29.84F

$$
MOZ072>076-082>087-097>100-106>115-241500-
...SOUTH CENTRAL AND SOUTHEAST MISSOURI...

CITY           SKY/WX    TMP DP  RH WIND       PRES   REMARKS
CAPE GIRARDEAU MOSUNNY   61  40  45 SE15      29.91F
FARMINGTON     MOSUNNY   61  37  41 S15G21    29.87F
POPLAR BLUFF   MOSUNNY   62  42  47 S10       29.88F
WEST PLAINS    PTSUNNY   63  39  41 SE15G25   29.79F

$$



USA.gov is the U.S. government's official web portal to all federal, state and local government web resources and services.